Location: Kitt Peak
(31.9639°N, 111.5992°W)
Time: 12:32:17
(UTC-07:00)

Hubble Space Telescope - Visible Passes

Search period start: 21 September 2017 00:00
Search period end: 01 October 2017 00:00
Orbit: 538 x 541 km, 28.5° (Epoch: 20 September)

Date Brightness Start Highest point End Pass type
(mag) Time Alt. Az. Time Alt. Az. Time Alt. Az.
27 Sep 3.4 05:50:12 10° S 05:52:17 14° SSE 05:54:21 10° SE visible
28 Sep 3.1 05:39:19 10° SSW 05:42:01 17° SSE 05:44:44 10° ESE visible
29 Sep 2.8 05:28:40 10° SSW 05:31:47 21° SSE 05:34:55 10° ESE visible
30 Sep 2.5 05:18:23 11° SW 05:21:34 25° SSE 05:24:59 10° ESE visible
